Home   Weather   Anderson   Past weeks

Flag for USA Past Weather in Anderson, South Carolina, USA — Yesterday and Last 2 Weeks

Now
48 °F

Clear.


Feels Like: 44 °F
Forecast: 31 / 55 °F
Wind: 8 mph from Northwest

Location: Anderson County Airport

Current Time: Jan 23, 2018 at 9:07:42 pm

Latest Report: Jan 23, 2018 at 7:56 pm


Visibility: 10 mi

Pressure: 30.01 "Hg

Humidity: 54%

Dew Point: 32 °F

Location of AndersonLocation

Past Weather in Anderson — Graph

°F

Anderson Temperature Yesterday

Maximum temperature yesterday: 61 °F (at 11:56 pm)
Minimum temperature yesterday: 41 °F (at 7:56 am)
Average temperature yesterday: 53 °F

High & Low Weather Summary for the Past Weeks

 TemperatureHumidityPressure
High69 °F (Jan 21, 2:56 pm)100% (Jan 8, 10:56 pm)30.57 "Hg (Jan 8, 10:56 pm)
Low15 °F (Jan 18, 3:56 am)14% (Jan 19, 3:56 pm)29.61 "Hg (Jan 12, 3:56 pm)
Average45 °F73%30.16 "Hg
* Reported Jan 8 7:56 pm — Jan 23 7:56 pm, Anderson. Weather by CustomWeather, © 2018

Note: Actual official high and low records may vary slightly from our data, if they occured in-between our weather recording intervals... More about our weather records

Advertising

Anderson Weather History for the Previous 24 Hours

Scroll right to see more
 ConditionsComfort  
Time TempWeatherWind HumidityBarometerVisibility
7:56 pm
Tue, Jan 23
48 °FClear.8 mph54%30.01 "Hg10 mi
6:56 pm51 °FClear.13 mph46%29.98 "Hg10 mi
5:56 pm52 °FClear.15 mph45%29.95 "Hg10 mi
4:56 pm55 °FSunny.18 mph40%29.91 "Hg10 mi
3:56 pm57 °FSunny.22 mph37%29.88 "Hg10 mi
2:56 pm58 °FSunny.20 mph36%29.87 "Hg10 mi
1:56 pm57 °FSunny.21 mph37%29.87 "Hg10 mi
12:56 pm55 °FSunny.18 mph39%29.88 "Hg10 mi
11:56 am53 °FSunny.22 mph41%29.91 "Hg10 mi
10:56 am52 °FSunny.18 mph47%29.92 "Hg10 mi
9:56 am51 °FSunny.21 mph48%29.92 "Hg10 mi
8:56 am51 °FSunny.14 mph50%29.90 "Hg10 mi
7:56 am51 °FPassing clouds.16 mph50%29.89 "Hg10 mi
6:56 am55 °FPassing clouds.15 mph57%29.86 "Hg10 mi
5:56 am58 °FMostly cloudy.14 mph75%29.82 "Hg10 mi
5:38 am60 °FMostly cloudy.13 mph83%29.83 "Hg10 mi
5:17 am61 °FOvercast.16 mph83%29.81 "Hg10 mi
5:06 am62 °FOvercast.12 mph86%29.81 "Hg10 mi
4:56 am62 °FOvercast.13 mph90%29.80 "Hg10 mi
3:56 am62 °FOvercast.13 mph93%29.80 "Hg10 mi
3:38 am62 °FMostly cloudy.10 mph93%29.81 "Hg10 mi
3:13 am62 °FMostly cloudy.12 mph93%29.82 "Hg10 mi
2:56 am62 °FMostly cloudy.10 mph93%29.81 "Hg10 mi
2:35 am61 °FLow clouds.9 mph97%29.83 "Hg10 mi
1:56 am61 °FMostly cloudy.12 mph93%29.82 "Hg10 mi
12:56 am61 °FOvercast.14 mph93%29.83 "Hg10 mi
12:16 am61 °FMostly cloudy.15 mph93%29.86 "Hg10 mi
11:56 pm
Mon, Jan 22
61 °FLow clouds.18 mph93%29.85 "Hg10 mi
10:56 pm60 °FMostly cloudy.15 mph96%29.86 "Hg10 mi
10:42 pm59 °FLight rain. Overcast.14 mph96%29.89 "Hg10 mi
10:09 pm56 °FLight rain. Fog.6 mph97%29.91 "Hg3 mi
9:56 pm54 °FRain. Fog.5 mph97%29.91 "Hg1 mi
Weather by CustomWeather, © 2018

See weather overview